This is the latest recevied weather packets stored in our database for station/object KA1AL. If no packets are shown the sender has not sent any weather packets the latest 10 day(s).
| Time | Temp. | Humidity | Pressure | Rain* | Wind** | Luminosity | Snow |
|---|---|---|---|---|---|---|---|
| 1777771755 | 2.78° C | 99% | 1011.1 hPa | 1.27 mm | - | 0 W/m² | - |
| 1777771454 | 2.78° C | 99% | 1010.9 hPa | 0 mm | - | 0 W/m² | - |
| 1777771149 | 2.78° C | 99% | 1011.2 hPa | 0 mm | - | 0 W/m² | - |
| 1777770846 | 2.78° C | 99% | 1011 hPa | 1.78 mm | - | 0 W/m² | - |
| 1777770543 | 2.78° C | 99% | 1011.1 hPa | 3.05 mm | - | 0 W/m² | - |
| 1777770240 | 2.78° C | 99% | 1011.1 hPa | 1.27 mm | - | 0 W/m² | - |
| 1777769937 | 2.78° C | 99% | 1011.3 hPa | 3.05 mm | - | 0 W/m² | - |
| 1777769635 | 3.33° C | 99% | 1010.9 hPa | 1.78 mm | - | 0 W/m² | - |
| 1777769330 | 3.33° C | 99% | 1011 hPa | 1.27 mm | - | 0 W/m² | - |
| 1777769028 | 3.33° C | 99% | 1011.1 hPa | 1.27 mm | - | 0 W/m² | - |
| 1777768726 | 3.33° C | 99% | 1011.1 hPa | 1.78 mm | - | 0 W/m² | - |
| 1777768422 | 3.33° C | 99% | 1011 hPa | 1.78 mm | - | 0 W/m² | - |
| 1777768119 | 3.33° C | 99% | 1010.9 hPa | 1.78 mm | - | 0 W/m² | - |
| 1777767816 | 3.33° C | 99% | 1011 hPa | 1.78 mm | - | 0 W/m² | - |
| 1777767513 | 2.78° C | 99% | 1010.5 hPa | 0 mm | - | 0 W/m² | - |
| 1777767209 | 3.33° C | 99% | 1010.8 hPa | 0 mm | - | 0 W/m² | - |
| 1777766907 | 3.33° C | 99% | 1010.8 hPa | 0 mm | - | 0 W/m² | - |
| 1777766604 | 3.33° C | 99% | 1010.8 hPa | 0 mm | - | 0 W/m² | - |
| 1777766301 | 3.33° C | 99% | 1010.9 hPa | 1.27 mm | - | 0 W/m² | - |
| 1777765998 | 3.33° C | 99% | 1010.9 hPa | 1.27 mm | - | 0 W/m² | - |
| 1777765694 | 3.33° C | 99% | 1010.8 hPa | 0 mm | - | 0 W/m² | - |
| 1777765392 | 3.33° C | 99% | 1010.9 hPa | 0 mm | - | 0 W/m² | - |
| 1777765088 | 3.33° C | 99% | 1010.3 hPa | 0 mm | - | 0 W/m² | - |
| 1777764784 | 3.33° C | 99% | 1010.7 hPa | 1.78 mm | - | 0 W/m² | - |
| 1777764481 | 3.33° C | 99% | 1010.8 hPa | 1.78 mm | - | 0 W/m² | - |
* Rain latest hour (hover to see other rain measurements)
** Current wind speed in m/s (hover to see current wind gust speed)